Overview Statistics Trail Chart Weather Telemetry Raw packets
 

This is the latest recevied weather packets stored in our database for station/object KH6DH-13. If no packets are shown the sender has not sent any weather packets the latest 10 day(s).

<< 6 7 8 9 10 11 12 >>
Time Temp. Humidity Pressure Rain* Wind** Luminosity Snow
1788563329 27.78° C - - 0 mm 3.58 m/s, 60° - -
1788562728 27.22° C - - 0 mm 1.79 m/s, 328° - -
1788562127 27.22° C - - 0 mm 1.79 m/s, 98° - -
1788561526 27.22° C - - 0 mm 1.79 m/s, 122° - -
1788560925 27.22° C - - 0 mm 1.34 m/s, 359° - -
1788560324 27.22° C - - 0 mm 0.45 m/s, 104° - -
1788559723 27.22° C - - 0 mm 1.34 m/s, 132° - -
1788559122 26.67° C - - 0 mm 2.24 m/s, 121° - -
1788558521 26.67° C - - 0 mm 1.34 m/s, 7° - -
1788557920 26.67° C - - 0 mm 3.13 m/s, 105° - -
1788557319 26.67° C - - 0 mm 0.45 m/s, 103° - -
1788556718 26.67° C - - 0 mm 2.68 m/s, 91° - -
1788556117 26.67° C - - 0 mm 1.34 m/s, 125° - -
1788555516 26.67° C - - 0 mm 1.34 m/s, 322° - -
1788554915 26.11° C - - 0 mm 1.34 m/s, 117° - -
1788554314 26.11° C - - 0 mm 2.24 m/s, 90° - -
1788553713 26.11° C - - 0 mm 3.58 m/s, 121° - -
1788553112 26.11° C - - 0 mm 1.34 m/s, 228° - -
1788552511 26.11° C - - 0 mm 3.58 m/s, 84° - -
1788551910 26.11° C - - 0 mm 1.34 m/s, 58° - -
1788551324 25.56° C - - 0 mm 1.79 m/s, 104° - -
1788550708 25.56° C - - 0 mm 0.89 m/s, 181° - -
1788550107 25.56° C - - 0 mm 2.24 m/s, 15° - -
1788549506 25.56° C - - 0 mm 1.79 m/s, 115° - -
1788548905 25° C - - 0 mm 0.45 m/s, 197° - -

* Rain latest hour (hover to see other rain measurements)
** Current wind speed in m/s (hover to see current wind gust speed)